• Processing (Info)

  • MPEC 2023-Q56 : 2023 QO1

    The following Minor Planet Electronic Circular may be linked-to from your own Web pages, but must not otherwise be redistributed electronically.

    A form allowing access to any MPEC is at the bottom of this page.


    Read MPEC 2023-Q55 Read MPEC 2023-Q57


    M.P.E.C. 2023-Q56                               Issued 2023 August 21, 11:49 UT
    
         The Minor Planet Electronic Circulars contain information on unusual
             minor planets, routine data on comets and natural satellites,
             and occasional editorial announcements.  They are published
        on behalf of Division F of the International Astronomical Union by the
              Minor Planet Center, Smithsonian Astrophysical Observatory,
                              Cambridge, MA 02138, U.S.A.
    			  
                 Prepared using the Tamkin Foundation Computer Network
    
                                  MPC@CFA.HARVARD.EDU
                URL https://www.minorplanetcenter.net/    ISSN 1523-6714
    
                                    2023 QO1                                 
    
    
    Observations:
         K23Q01O* C2023 08 18.47386223 37 10.821-00 49 18.27         21.34wXEQ056F52
         K23Q01O  C2023 08 18.48540023 37 08.900-00 48 31.07         21.07wXEQ056F52
         K23Q01O  C2023 08 18.49691623 37 06.956-00 47 43.77         20.57wXEQ056F52
         K23Q01O  C2023 08 18.55623923 36 57.092-00 43 42.07         20.69GVEQ056F51
         K23Q01O  C2023 08 18.55688023 36 56.988-00 43 39.46         20.69GVEQ056F51
         K23Q01O 1C2023 08 19.06222 23 35 40.73 -00 09 31.0          20.6 VXEQ056033
         K23Q01O 1C2023 08 19.06368 23 35 40.49 -00 09 25.0          20.3 VXEQ056033
         K23Q01O 1C2023 08 19.06513 23 35 40.26 -00 09 19.1          20.2 VXEQ056033
         K23Q01O 1C2023 08 19.06712 23 35 39.91 -00 09 11.1          20.8 VXEQ056033
         K23Q01O KC2023 08 19.07171223 35 39.09 -00 08 49.7          21.0 GVEQ056L01
         K23Q01O KC2023 08 19.07423623 35 38.66 -00 08 39.0          20.7 GVEQ056L01
         K23Q01O KC2023 08 19.07676023 35 38.24 -00 08 28.7          20.9 GVEQ056L01
         K23Q01O KC2023 08 19.07953923 35 37.76 -00 08 17.7          20.7 GVEQ056L01
         K23Q01O KC2023 08 19.29870023 35 04.86 +00 06 43.3          21.2 VuEQ056H21
         K23Q01O KC2023 08 19.30429323 35 03.90 +00 07 06.3          21.1 VuEQ056H21
         K23Q01O KC2023 08 19.30634523 35 03.56 +00 07 14.7          21.4 VuEQ056H21
         K23Q01O KC2023 08 19.36462 23 34 54.13 +00 11 12.9          20.1 RqEQ056H36
         K23Q01O KC2023 08 19.38272 23 34 51.07 +00 12 28.1          20.5 RqEQ056H36
         K23Q01O KC2023 08 19.40082 23 34 48.06 +00 13 41.3          19.9 RqEQ056H36
         K23Q01O 3C2023 08 19.60267223 34 16.007+00 27 40.69         21.12GVEQ056T14
         K23Q01O 3C2023 08 19.60364823 34 15.838+00 27 44.67         21.21GVEQ056T14
         K23Q01O 3C2023 08 19.60463723 34 15.672+00 27 48.73         21.17GVEQ056T14
         K23Q01O KC2023 08 21.25975923 29 54.78 +02 20 52.1          19.8 GXEQ056858
         K23Q01O KC2023 08 21.26499023 29 53.92 +02 21 14.1          19.9 GXEQ056858
         K23Q01O KC2023 08 21.27015923 29 53.00 +02 21 35.8          19.9 GXEQ056858
    
    Observer details:
    033 Karl Schwarzschild Observatory, Tautenburg.  Observers S. Melnikov, C.
        Hoegner, F. Ludwig, M. Hartmann, B. Stecklum.  Measurer B. Stecklum.
        1.34-m f/3 Schmidt + CCD.
    858 Tebbutt Observatory, Edgewood.  Observer F. B. Zoltowski.  0.51-m f/8.1
        Schmidt-Cassegrain + CCD.
    F51 Pan-STARRS 1, Haleakala.  Observers J. Bulger, K. Chambers, T. Lowe, P.
        Minguez, A. Schultz, I. Smith.  Measurers S. Chastel, J. Fairlamb, M.
        Huber, Y. Ramanjooloo, R. Wainscoat, R. Weryk.  1.8-m Ritchey-Chretien +
        CCD.
    F52 Pan-STARRS 2, Haleakala.  Observers J. Bulger, T. Lowe, P. Minguez, A.
        Schultz, I. Smith.  Measurers K. Chambers, T. de Boer, J. Bulger, J.
        Fairlamb, H. Gao, M. Huber, C.-C. Lin, T. Lowe, E. Magnier, P. Minguez, Y.
        Ramanjooloo, A. Schultz, I. Smith, R. Wainscoat, R. Weryk.  1.8-m Ritchey-
        Chretien + CCD.
    H21 Astronomical Research Observatory, Westfield.  Observer R. Holmes.
        Measurers T. Linder, R. Holmes, L. Horn.  0.76-m f/3.0 astrograph + CCD.
    H36 Sandlot Observatory, Scranton.  Observer G. Hug.  .57 meter f/4.6 + CCD.
    L01 Visnjan Observatory, Tican.  Observer K. Korlevic.  1.0-m f/2.9 reflector
        + CCD.
    T14 Canada-France-Hawaii Telescope, Maunakea.  Observers R. Wainscoat, H.
        Januszewski, T. Burdullis.  Measurers R. Weryk, R. Wainscoat.  3.6-m
        Canada-France-Hawaii Telescope + CCD.
    
    Orbital elements:
    2023 QO1                                                 Earth MOID = 0.1910 AU
    Epoch 2023 Sept. 13.0 TT = JDT 2460200.5                Veres                   
    M  22.67334              (2000.0)            P               Q                  
    n   0.60293375     Peri.  351.33307     +0.77396025     +0.61579045             
    a   1.3876810      Node   329.08340     -0.56240121     +0.56132467             
    e   0.1339901      Incl.   16.69575     -0.29101615     +0.55291658             
    P   1.63           H   22.72          G   0.15           U   9                  
    Residuals in seconds of arc
    230818 F52  0.2+  0.1+    230819 L01  0.3+  0.3-    230819 H36  0.6+  0.5-
    230818 F52  0.2+  0.2+    230819 L01  0.1+  0.0     230819 T14  0.0   0.0
    230818 F52  0.3-  0.5+    230819 L01  0.1+  0.0     230819 T14  0.0   0.0
    230818 F51  0.0   0.0     230819 L01  0.3-  0.3-    230819 T14  0.0   0.0
    230818 F51  0.0   0.1-    230819 H21  0.0   0.1+    230821 858  0.4-  0.3-
    230819 033  0.0   0.1-    230819 H21  0.4-  0.2+    230821 858  0.4+  0.2+
    230819 033  0.0   0.0     230819 H21  0.3-  0.2+    230821 858  0.2+  0.6+
    230819 033  0.1+  0.1-    230819 H36  0.6+  0.6-
    230819 033  0.2-  0.2-    230819 H36  0.2+  0.5+
    
    Ephemeris:
    2023 QO1                 a,e,i = 1.39, 0.13, 17                  q = 1.2017
    Date    TT    R. A. (2000) Decl.     Delta      r    Elong.  Phase     V
    2023 07 22    00 10 40.1 -25 50 11   0.2968  1.2050   123.3    44.8    22.2
    ...
    2023 08 06    00 01 14.9 -13 57 24   0.2415  1.2017   136.7    35.3    21.5
    ...
    2023 08 14    23 47 30.7 -05 48 07   0.2215  1.2025   145.6    28.4    21.1
    ...
    2023 08 20    23 33 15.4 +00 55 00   0.2130  1.2043   152.0    23.2    20.9
    2023 08 21    23 30 35.8 +02 03 25   0.2122  1.2047   152.9    22.5    20.8
    2023 08 22    23 27 51.9 +03 11 49   0.2116  1.2051   153.8    21.8    20.8
    ...
    2023 08 28    23 10 19.2 +09 52 57   0.2117  1.2081   157.0    19.0    20.7
    ...
    2023 09 05    22 45 39.1 +17 42 40   0.2221  1.2136   155.1    20.5    20.9
    ...
    2023 09 20    22 06 33.0 +27 02 15   0.2675  1.2280   142.7    29.7    21.6
    
    M. P. C. Staff               (C) Copyright 2023 MPC           M.P.E.C. 2023-Q56
    


    Read MPEC 2023-Q55 Read MPEC 2023-Q57


    MPEC number:

    Enter an MPEC number in one of the following forms:

    • 1997-B01 (the full form)
    • J97B01 (the packed version of the full form)
    • B01 (the abbreviated form)